When you browse on this site, cookies collect data to enhance your experience and personalize the content and advertising you see.
Visit our Privacy Policy to learn more. By continuing to use the site, you agree to this use of cookies and data.
  • In Hungary
  • List of Countries
  • For 7 days
  • Water Temperature
  • Weather Map
  • News
  • Weather Widgets
  • user-avatar
    Login

    Hourly Weather Bełchatów

    Today, 28 May, Thursday

    Time Temperature Precipitation Wind Pressure Humidity
    00:00 +11°C° 0 mm 1 mps 750 mmHg 85%
    01:00 +11°C° 0 mm 1 mps 750 mmHg 87%
    02:00 +11°C° 0 mm 1 mps 749 mmHg 88%
    03:00 +10°C° 0 mm 1 mps 749 mmHg 88%
    04:00 +10°C° 0 mm 1 mps 749 mmHg 88%
    05:00 +12°C° 0 mm 1 mps 749 mmHg 85%
    06:00 +13°C° 0 mm 1 mps 749 mmHg 82%
    07:00 +14°C° 0 mm 2 mps 749 mmHg 78%
    08:00 +15°C° 0.4 mm 2 mps 748 mmHg 77%
    09:00 +14°C° 0.4 mm 3 mps 748 mmHg 75%
    10:00 +15°C° 0.4 mm 4 mps 748 mmHg 73%
    11:00 +15°C° 0.5 mm 4 mps 748 mmHg 71%
    12:00 +17°C° 0.5 mm 4 mps 748 mmHg 70%
    13:00 +16°C° 0.5 mm 5 mps 748 mmHg 69%
    14:00 +16°C° 0.3 mm 5 mps 747 mmHg 68%
    15:00 +16°C° 0.3 mm 5 mps 747 mmHg 68%
    16:00 +16°C° 0.3 mm 5 mps 747 mmHg 67%
    17:00 +15°C° 0.1 mm 5 mps 747 mmHg 73%
    18:00 +14°C° 0.1 mm 4 mps 747 mmHg 79%
    19:00 +13°C° 0.1 mm 4 mps 747 mmHg 84%
    20:00 +12°C° 0 mm 4 mps 748 mmHg 86%
    21:00 +11°C° 0 mm 4 mps 748 mmHg 88%
    22:00 +10°C° 0 mm 4 mps 748 mmHg 89%
    23:00 +10°C° 0 mm 4 mps 748 mmHg 90%

    Tomorrow, 29 May, Friday

    Time Temperature Precipitation Wind Pressure Humidity
    00:00 +8°C° 0 mm 4 mps 748 mmHg 91%
    01:00 +7°C° 0 mm 5 mps 748 mmHg 92%
    02:00 +8°C° 0 mm 5 mps 748 mmHg 88%
    03:00 +8°C° 0 mm 5 mps 748 mmHg 85%
    04:00 +9°C° 0 mm 5 mps 748 mmHg 81%
    05:00 +9°C° 0 mm 5 mps 748 mmHg 79%
    06:00 +9°C° 0 mm 5 mps 748 mmHg 77%
    07:00 +8°C° 0 mm 5 mps 748 mmHg 74%
    08:00 +10°C° 0 mm 6 mps 748 mmHg 69%
    09:00 +13°C° 0 mm 6 mps 748 mmHg 63%
    10:00 +14°C° 0 mm 7 mps 748 mmHg 57%
    11:00 +15°C° 0 mm 7 mps 748 mmHg 57%
    12:00 +15°C° 0 mm 7 mps 747 mmHg 56%
    13:00 +16°C° 0 mm 7 mps 747 mmHg 56%
    14:00 +15°C° 0.1 mm 7 mps 747 mmHg 57%
    15:00 +15°C° 0.1 mm 7 mps 747 mmHg 58%
    16:00 +15°C° 0.1 mm 7 mps 746 mmHg 58%
    17:00 +14°C° 0 mm 6 mps 746 mmHg 63%
    18:00 +13°C° 0 mm 5 mps 746 mmHg 68%
    19:00 +10°C° 0 mm 5 mps 746 mmHg 72%
    20:00 +9°C° 0 mm 5 mps 746 mmHg 75%
    21:00 +8°C° 0 mm 5 mps 746 mmHg 77%
    22:00 +7°C° 0 mm 5 mps 746 mmHg 79%
    23:00 +6°C° 0 mm 4 mps 746 mmHg 82%

    Day after tomorrow, 30 May, Saturday

    Time Temperature Precipitation Wind Pressure Humidity
    00:00 +6°C° 0 mm 4 mps 746 mmHg 84%
    01:00 +5°C° 0 mm 4 mps 746 mmHg 86%
    02:00 +5°C° 0 mm 4 mps 745 mmHg 87%
    03:00 +5°C° 0 mm 4 mps 745 mmHg 88%
    04:00 +4°C° 0 mm 4 mps 745 mmHg 88%
    05:00 +6°C° 0 mm 4 mps 745 mmHg 86%
    06:00 +7°C° 0 mm 5 mps 745 mmHg 84%
    07:00 +8°C° 0 mm 5 mps 745 mmHg 81%
    08:00 +9°C° 0.2 mm 5 mps 745 mmHg 80%
    09:00 +9°C° 0.2 mm 5 mps 744 mmHg 79%
    10:00 +10°C° 0.2 mm 6 mps 744 mmHg 78%
    11:00 +10°C° 1.2 mm 5 mps 744 mmHg 83%
    12:00 +9°C° 1.2 mm 5 mps 744 mmHg 87%
    13:00 +8°C° 1.2 mm 5 mps 744 mmHg 92%
    14:00 +9°C° 0.3 mm 5 mps 743 mmHg 92%
    15:00 +10°C° 0.3 mm 4 mps 743 mmHg 92%
    16:00 +10°C° 0.3 mm 4 mps 743 mmHg 91%
    17:00 +10°C° 0.1 mm 4 mps 743 mmHg 92%
    18:00 +10°C° 0.1 mm 4 mps 743 mmHg 92%
    19:00 +10°C° 0.1 mm 4 mps 742 mmHg 92%
    20:00 +10°C° 0.2 mm 4 mps 742 mmHg 93%
    21:00 +10°C° 0.2 mm 4 mps 742 mmHg 95%
    22:00 +10°C° 0.2 mm 5 mps 742 mmHg 96%
    23:00 +10°C° 1.1 mm 5 mps 741 mmHg 96%

    31 May, Sunday

    Time Temperature Precipitation Wind Pressure Humidity
    00:00 +10°C° 1.1 mm 5 mps 741 mmHg 97%
    01:00 +10°C° 1.1 mm 5 mps 741 mmHg 97%
    02:00 +10°C° 1.4 mm 6 mps 740 mmHg 97%
    03:00 +10°C° 1.4 mm 6 mps 740 mmHg 96%
    04:00 +10°C° 1.4 mm 6 mps 740 mmHg 96%
    05:00 +10°C° 0.8 mm 6 mps 740 mmHg 94%
    06:00 +10°C° 0.8 mm 6 mps 740 mmHg 93%
    07:00 +10°C° 0.8 mm 6 mps 740 mmHg 91%
    08:00 +11°C° 0.1 mm 6 mps 740 mmHg 89%
    09:00 +11°C° 0.1 mm 6 mps 740 mmHg 88%
    10:00 +13°C° 0.1 mm 6 mps 740 mmHg 86%
    11:00 +14°C° 0 mm 6 mps 740 mmHg 85%
    12:00 +15°C° 0 mm 6 mps 741 mmHg 83%
    13:00 +16°C° 0 mm 6 mps 741 mmHg 82%
    14:00 +16°C° 0 mm 6 mps 741 mmHg 81%
    15:00 +17°C° 0 mm 6 mps 741 mmHg 81%
    16:00 +17°C° 0 mm 6 mps 741 mmHg 80%
    17:00 +17°C° 0.1 mm 5 mps 742 mmHg 83%
    18:00 +16°C° 0.1 mm 5 mps 742 mmHg 85%
    19:00 +17°C° 0.1 mm 4 mps 742 mmHg 88%
    20:00 +15°C° 0 mm 5 mps 742 mmHg 89%
    21:00 +14°C° 0 mm 5 mps 743 mmHg 90%
    22:00 +14°C° 0 mm 5 mps 743 mmHg 91%
    23:00 +13°C° 0 mm 5 mps 743 mmHg 92%

    1 June, Monday

    Time Temperature Precipitation Wind Pressure Humidity
    00:00 +12°C° 0 mm 4 mps 744 mmHg 93%
    01:00 +12°C° 0 mm 4 mps 744 mmHg 94%
    02:00 +11°C° 0 mm 4 mps 744 mmHg 92%
    03:00 +11°C° 0 mm 4 mps 744 mmHg 91%
    04:00 +11°C° 0 mm 4 mps 744 mmHg 90%
    05:00 +12°C° 0 mm 5 mps 744 mmHg 86%
    06:00 +13°C° 0 mm 5 mps 745 mmHg 82%
    07:00 +14°C° 0 mm 6 mps 745 mmHg 77%
    08:00 +15°C° 0 mm 6 mps 745 mmHg 73%
    09:00 +17°C° 0 mm 7 mps 745 mmHg 68%
    10:00 +18°C° 0 mm 7 mps 746 mmHg 63%
    11:00 +18°C° 0 mm 7 mps 746 mmHg 61%
    12:00 +18°C° 0 mm 7 mps 745 mmHg 59%
    13:00 +20°C° 0 mm 6 mps 745 mmHg 57%
    14:00 +20°C° 0 mm 6 mps 745 mmHg 57%
    15:00 +20°C° 0 mm 6 mps 745 mmHg 58%
    16:00 +20°C° 0 mm 6 mps 745 mmHg 59%
    17:00 +19°C° 0 mm 6 mps 745 mmHg 65%
    18:00 +16°C° 0 mm 5 mps 745 mmHg 71%
    19:00 +15°C° 0 mm 4 mps 745 mmHg 76%
    20:00 +14°C° 0 mm 4 mps 745 mmHg 79%
    21:00 +13°C° 0 mm 4 mps 745 mmHg 81%
    22:00 +12°C° 0 mm 4 mps 746 mmHg 84%
    23:00 +12°C° 0 mm 3 mps 746 mmHg 86%

    2 June, Tuesday

    Time Temperature Precipitation Wind Pressure Humidity
    00:00 +11°C° 0 mm 3 mps 746 mmHg 89%
    01:00 +11°C° 0 mm 3 mps 745 mmHg 91%
    02:00 +10°C° 0 mm 3 mps 745 mmHg 92%
    03:00 +10°C° 0 mm 3 mps 745 mmHg 93%
    04:00 +10°C° 0 mm 3 mps 745 mmHg 93%
    05:00 +11°C° 0 mm 4 mps 745 mmHg 88%
    06:00 +13°C° 0 mm 4 mps 746 mmHg 83%
    07:00 +14°C° 0 mm 5 mps 746 mmHg 77%
    08:00 +16°C° 0 mm 5 mps 746 mmHg 71%
    09:00 +17°C° 0 mm 5 mps 746 mmHg 66%
    10:00 +19°C° 0 mm 6 mps 746 mmHg 60%
    11:00 +20°C° 0.1 mm 6 mps 746 mmHg 58%
    12:00 +20°C° 0.1 mm 6 mps 746 mmHg 57%
    13:00 +21°C° 0.1 mm 6 mps 745 mmHg 56%
    14:00 +21°C° 0 mm 6 mps 745 mmHg 56%
    15:00 +20°C° 0 mm 5 mps 745 mmHg 57%
    16:00 +20°C° 0 mm 5 mps 745 mmHg 58%
    17:00 +19°C° 0 mm 5 mps 744 mmHg 64%
    18:00 +18°C° 0 mm 4 mps 744 mmHg 70%
    19:00 +17°C° 0 mm 3 mps 744 mmHg 76%
    20:00 +16°C° 0 mm 3 mps 744 mmHg 79%
    21:00 +14°C° 0 mm 3 mps 745 mmHg 83%
    22:00 +13°C° 0 mm 3 mps 745 mmHg 86%
    23:00 +12°C° 0 mm 3 mps 745 mmHg 88%
    Show more